SL-14 DEB, 45278

Orbit data source: Space-Track

SL-14 DEB, 45278 is space debris in LEO originally from a launch on Thu, 15 Aug 1991 UTC launched from the Plesetsk Missile And Space Complex (PKMTR). Debris objects in space refer to the collection of defunct objects orbiting the Earth. Examples of debris include non-operational satellites, rocket bodies, and fragments generated from explosions, collisions, or faulty payload assembly.

Loading next visibility...
Identifier
45278, 1991-056Q
Orbit
LEO
Country
Flag of CISCIS
Related business
Manufacturer
Unknown
Mission
Spacecraft
Bus & Motor
Unknown
Mass
Unknown
Launch date (UTC)
1991-08-15 (34 years ago)
Launch vehicle
Unknown
Launch site
Plesetsk Missile And Space Complex (PKMTR)
Object type
Payload
Rocket body
Debris
Shape & HBR
Unknown shape, 0.2 m
Radar Cross Section
Medium (>0.1 m² and <1 m²)

Expand to show TLE details & history
Last TLE update: 18 hours ago

TLE from 18 hours ago
0 SL-14 DEB
1 45278U 91056Q   25350.18900104  .00006244  00000-0  56833-2 0  9998
2 45278  82.5727 152.9415 0133741  82.4853 279.1476 13.79244357290254
Epoch: 2025-12-16T04:32Z
TLE epoch observation values (Epoch: 2025-12-16T04:32:09.689Z)
Latitude
0.00005°
Longitude
-0.17565°
Altitude
955.13 km
Speed
7.381 km/s
True Right ascension
10h 11m 45s
True Declination
0° 00' 00"
Sunlit
Object was in daylight at epoch
Visualization orbit readout
Latitude
Unknown
Longitude
Unknown
Altitude
Unknown
Speed
Unknown
Apparent Right ascension
Unknown
Apparent Declination
Unknown
Sunlit
N/A
Visualization observer readout
Local Sidereal Time
21:40:41
Azimuth
Unknown
Elevation
Unknown
Doppler factor
Unknown
Orbital elements
Apogee altitude
1,061.916 km
Perigee altitude
865.534 km
Semi-major axis
7,341.862 km
Eccentricity
0.01337
Inclination
82.5727°
RAAN
152.9415°
Arg. of periapsis
82.4853°
True anomaly
277.63068°
Mean anomaly
279.1476°
Eccentric anomaly
278.38952°
Mean motion
3.45012 °/min
Orbital period
104.34 mins
BSTAR
0.0056833
Loading maneuver chart data...
Computing Atmospheric mass density...
Loading historical data...
Loading historical data...
Loading historical data...
Loading historical data...
Loading historical data...
Loading historical data...
Loading historical data...

Documentation

Showing up to 5 results
|